This demonstration page uses our WeatherBlox Daily Observations layout. Learn more.

Left ArrowRight Arrow

40.97296, -117.73568

Hourly Observations for March 3, 2016

Temp ( °F °C ) Dew Point ( °F °C ) Humidity (%) Winds ( mph kmh ) Pressure ( in mb ) Visibility ( mi km ) Precip ( " mm )
12:56 am 00:56 Clear 33 0.6 25 -3.9 72 72 S 5 7 30.05 1018 10 16 0.00 0.00
1:56 am 01:56 Clear 30 -1.1 23 -5 75 75 Calm 30.06 1018 10 16 0.00 0.00
2:56 am 02:56 Clear 40 4.4 25 -3.9 55 55 WSW 9 15 30.04 1017 10 16 0.00 0.00
3:56 am 03:56 Partly Cloudy 42 5.6 26 -3.3 53 53 SSW 7 11 30.01 1016 10 16 0.00 0.00
4:56 am 04:56 Clear 39 3.9 26 -3.3 60 60 SE 6 9 30.03 1017 10 16 0.00 0.00
5:56 am 05:56 Clear 44 6.7 26 -3.3 49 49 S 9 15 30.04 1017 10 16 0.00 0.00
6:56 am 06:56 Sunny 44 6.7 26 -3.3 49 49 Calm 30.06 1018 10 16 0.00 0.00
7:56 am 07:56 Sunny 51 10.6 25 -3.9 36 36 S 14 22 30.03 1017 10 16 0.00 0.00
8:56 am 08:56 Partly Cloudy 55 12.8 23 -5 29 29 S 10 17 30.03 1017 10 16 0.00 0.00
9:56 am 09:56 Partly Cloudy 57 13.9 24 -4.4 28 28 VRB 5 7 30.04 1017 10 16 0.00 0.00
10:56 am 10:56 Sunny 61 16.1 23 -5 23 23 WSW 6 9 30.01 1016 10 16 0.00 0.00
11:56 am 11:56 Sunny 62 16.7 24 -4.4 23 23 WSW 16 26 30.01 1016 10 16 0.00 0.00
12:56 pm 12:56 Partly Cloudy 63 17.2 22 -5.6 21 21 WSW 12 19 30.02 1017 10 16 0.00 0.00
1:56 pm 13:56 Mostly Cloudy 61 16.1 24 -4.4 24 24 SW 15 24 30.02 1017 10 16 0.00 0.00
2:56 pm 14:56 Mostly Sunny 61 16.1 24 -4.4 24 24 W 5 7 29.99 1016 10 16 0.00 0.00
3:56 pm 15:56 Sunny 59 15 28 -2.2 31 31 NNW 8 13 29.98 1015 10 16 0.00 0.00
4:56 pm 16:56 Sunny 58 14.4 30 -1.1 35 35 NNW 10 17 29.99 1016 10 16 0.00 0.00
5:56 pm 17:56 Clear 52 11.1 32 0 47 47 N 3 6 30.01 1016 10 16 0.00 0.00
6:56 pm 18:56 Clear 46 7.8 31 -0.6 56 56 SE 3 6 30.04 1017 10 16 0.00 0.00
7:56 pm 19:56 Mostly Clear 46 7.8 31 -0.6 56 56 N 5 7 30.02 1017 10 16 0.00 0.00
8:56 pm 20:56 Clear 43 6.1 32 0 65 65 Calm 30.02 1017 10 16 0.00 0.00
9:56 pm 21:56 Mostly Clear 41 5 32 0 70 70 Calm 30.04 1017 10 16 0.00 0.00
10:56 pm 22:56 Clear 38 3.3 31 -0.6 76 76 SE 7 11 30.03 1017 10 16 0.00 0.00
11:56 pm 23:56 Clear 37 2.8 31 -0.6 79 79 ESE 6 9 30.03 1017 10 16 0.00 0.00

Powered by AerisWeather